Weather Roundup
Issued by NWS Springfield, MO

Home | Current Version | Previous Version | Graphics & Text | Print | Product List | Glossary On
Versions: 1 2 3 4 5 6 7 8 9 10 11 12 13 14 15 16 17 18 19 20 21 22 23 24 25 26 27 28 29 30 31 32 33 34 35 36 37 38 39 40 41 42 43 44 45 46 47 48 49 50
000
NZUS99 KSGF 292007
HRRSGF

HOURLY WEATHER
NATIONAL WEATHER SERVICE SPRINGFIELD MO
300 PM CDT SUN MAR 29 2015

......SGF CWA......

CITY           SKY/WX    TMP DP  RH WIND       PRES   REMARKS
SPRINGFIELD    CLOUDY    62  41  46 W3        29.99F
JOPLIN         CLOUDY    60  43  53 W13G22    30.05R
WEST PLAINS    MOSUNNY   58  41  53 S12       30.01F
ROLLA          PTSUNNY   57  38  48 W14G25    29.95F
OSAGE BEACH    CLOUDY    55  36  47 SW10      29.99F
BRANSON        PTSUNNY   70  43  37 SW7       29.99F

......SURROUNDING SGF CWA......

CITY           SKY/WX    TMP DP  RH WIND       PRES   REMARKS
CHANUTE        PTSUNNY   63  45  51 S3        30.02F
PARSONS        CLOUDY    59  43  55 S3        30.04F
COFFEYVILLE    CLOUDY    59  42  53 SW5       30.05S
EMPORIA        PTSUNNY   69  34  27 NW22      30.01F
GROVE OK       PTSUNNY   63  43  48 W7        30.05R
ROGERS AR      PTSUNNY   67  45  45 W10       30.01F
SILOAM SPRINGS PTSUNNY   70  45  40 W10       30.02F
HARRISON AR    MOSUNNY   72  44  36 SE6       29.97F
NEAR YELLVILLE MOSUNNY   64  43  45 S7        29.98F

......KANSAS AND MISSOURI......

CITY           SKY/WX    TMP DP  RH WIND       PRES   REMARKS
KANSAS CTY INT PTSUNNY   68  40  35 NW20G29   29.97F
DOWNTOWN KC    CLOUDY    68  41  37 W14G22    29.97F
COLUMBIA       CLOUDY    54  38  54 W13       29.98S
SEDALIA        PTSUNNY   59  41  51 W12G21    29.98F
ST JOSEPH      PTSUNNY   67  41  38 NW28G36   29.98R
ST LOUIS       CLOUDY    59  33  37 SW12      29.95F
SPIRIT OF STL  LGT RAIN  59  35  40 SW13      29.95F
KIRKSVILLE     CLOUDY    58  42  55 W18G25    29.93S
WICHITA        PTSUNNY   74  33  22 N15G26    30.04F
TOPEKA         MOSUNNY   69  40  34 NW20G35   30.01R
OLATHE         PTSUNNY   63  40  42 NW16G23   29.98S

......TENNESSEE......

CITY           SKY/WX    TMP DP  RH WIND       PRES   REMARKS
MEMPHIS        SUNNY     66  45  46 S15       30.10F
NASHVILLE      MOSUNNY   62  26  25 S15G23    30.16F

......ARKANSAS.......

CITY           SKY/WX    TMP DP  RH WIND       PRES   REMARKS
FAYETTEVILLE   MOSUNNY   67  48  50 SW9       30.00F
FT SMITH       SUNNY     67  44  43 NE9       30.00F
LITTLE ROCK    SUNNY     73  45  36 SW10      30.03F

......OKLAHOMA.......

CITY           SKY/WX    TMP DP  RH WIND       PRES   REMARKS
TULSA          CLOUDY    68  45  43 N6        30.01F
PONCA CITY     PTSUNNY   75  42  30 N20       30.02F
MCALESTER      MOSUNNY   76  48  37 SW7       30.01S
OKLAHOMA CITY  MOSUNNY   76  49  38 N16       30.02R

......IOWA............

CITY           SKY/WX    TMP DP  RH WIND       PRES   REMARKS
DES MOINES     CLOUDY    56  39  53 NW26G40   29.91R
QUAD CITIES    MOSUNNY   54  39  57 SW18G24   29.81F

......ILLINOIS........

CITY           SKY/WX    TMP DP  RH WIND       PRES   REMARKS
QUINCY         CLOUDY    56  37  49 SW18G31   29.91F
CHICAGO        CLOUDY    38  29  70 SW25G35   29.82F WCI  27



USA.gov is the U.S. government's official web portal to all federal, state and local government web resources and services.